If you wish to contribute or participate in the discussions about articles you are invited to join SKYbrary as a registered user

 Actions

Armilla Airport

From SKYbrary Wiki

LEGA
Airport
ICAO: LEGA
Summary
Name Armilla Airport
Region Europe
Territory Spain ES.gif
Location , Andalucia
Serving Granada
Elevation 700.126 m
2,297 ft
2,297 ft700.126 m
Type medium airport
Coordinates 37° 7' 59.60" N, 3° 38' 8.50" W
Runways
Designator Length Width Surface ROPS
18/36 1300 m4,265.092 ft
30 m98.425 ft
ASP /


METAR
Observation LEGA 141000Z 09003KT CAVOK 23/04 Q1019
Station Granada / Armilla
Date/Time 14 May 2019 10:00:00
Wind direction 90°
Wind speed 03 kts
Lowest cloud amount clouds and visibility OK
Temperature 23°C
Dew point 4°C
Humidity 29%
QNH 1019 hPa
Weather condition n/a